Location: Newark
(36.1358°N, 115.1208°W)
Time: 13:07:05
(UTC+00:00)

Tiros 1 despin weight - All Passes

Search period start: 21 February 2020 00:00
Search period end: 02 March 2020 00:00
Orbit: 594 x 642 km, 48.2° (Epoch: 21 February)

Date Brightness Start Highest point End Pass type
(mag) Time Alt. Az. Time Alt. Az. Time Alt. Az.
21 Feb - 06:35:17 10° S 06:38:09 17° SE 06:41:01 10° E night (unlit)
21 Feb - 08:14:49 10° WSW 08:19:17 77° NW 08:23:43 10° NE night (unlit)
21 Feb - 09:57:49 10° WNW 10:01:21 23° NNW 10:04:53 10° NE night (unlit)
21 Feb - 11:41:09 10° NW 11:44:06 17° N 11:47:02 10° NE visible
21 Feb - 13:22:39 10° NW 13:26:39 32° NNE 13:30:40 10° E visible
21 Feb - 15:04:02 10° WNW 15:08:21 53° SW 15:12:40 10° SE daylight
22 Feb - 06:50:22 10° SSW 06:54:27 35° SE 06:58:29 10° ENE night (unlit)
22 Feb - 08:31:40 10° W 08:35:55 42° NNW 08:40:09 10° NE night (unlit)
22 Feb - 10:15:14 10° NW 10:18:20 18° N 10:21:25 10° NE visible
22 Feb - 11:57:51 10° NW 12:01:06 20° NNE 12:04:22 10° ENE visible
22 Feb - 13:39:03 10° NW 13:43:23 54° NNE 13:47:43 10° ESE visible
22 Feb - 15:21:03 10° WNW 15:24:42 25° SW 15:28:22 10° S daylight
23 Feb - 05:29:01 10° SE 05:29:55 10° SE 05:30:48 10° ESE night (unlit)
23 Feb - 07:06:23 10° SW 07:10:51 73° SE 07:15:17 10° ENE night (unlit)
23 Feb - 08:48:53 10° W 08:52:42 27° NNW 08:56:31 10° NE night (unlit)
23 Feb - 10:32:28 10° NW 10:35:21 17° N 10:38:15 10° NE visible
23 Feb - 12:14:19 10° NW 12:18:03 26° NNE 12:21:46 10° ENE visible
23 Feb - 13:55:32 10° NW 13:59:58 80° SW 14:04:23 10° SE daylight
23 Feb - 15:39:20 10° WSW 15:40:55 12° SW 15:42:31 10° SSW daylight
24 Feb - 05:42:35 10° S 05:46:08 23° SE 05:49:40 10° E night (unlit)
24 Feb - 07:22:59 10° WSW 07:27:24 59° NNW 07:31:48 10° NE night (unlit)
24 Feb - 09:06:17 10° WNW 09:09:37 20° NNW 09:12:58 10° NE night (unlit)
24 Feb - 10:49:22 10° NW 10:52:24 18° N 10:55:27 10° NE visible
24 Feb - 12:30:42 10° NW 12:34:52 39° NNE 12:39:01 10° E visible
24 Feb - 14:12:17 10° WNW 14:16:23 38° SW 14:20:30 10° SSE daylight
25 Feb - 05:58:08 10° SSW 06:02:28 48° SE 06:06:46 10° ENE night (unlit)
25 Feb - 07:40:00 10° W 07:44:06 35° NNW 07:48:12 10° NE night (unlit)
25 Feb - 09:23:39 10° NW 09:26:37 17° N 09:29:37 10° NE night (unlit)
25 Feb - 11:05:57 10° NW 11:09:24 22° NNE 11:12:51 10° ENE visible
25 Feb - 12:47:07 10° NW 12:51:31 70° NNE 12:55:55 10° ESE visible
25 Feb - 14:29:36 10° W 14:32:41 19° SW 14:35:46 10° S daylight
26 Feb - 04:35:15 10° SSE 04:37:51 15° SE 04:40:27 10° E night (unlit)
26 Feb - 06:14:26 10° SW 06:18:56 85° NW 06:23:25 10° NE night (unlit)
26 Feb - 07:57:19 10° WNW 08:00:57 24° NNW 08:04:34 10° NE night (unlit)
26 Feb - 09:40:45 10° NW 09:43:41 17° N 09:46:36 10° NE night (unlit)
26 Feb - 11:22:21 10° NW 11:26:17 30° NNE 11:30:12 10° E visible
26 Feb - 13:03:41 10° WNW 13:08:02 59° SW 13:12:23 10° SE visible
27 Feb - 04:50:07 10° SSW 04:54:08 31° SE 04:58:06 10° ENE night (unlit)
27 Feb - 06:31:13 10° WSW 06:35:33 46° NNW 06:39:52 10° NE night (unlit)
27 Feb - 08:14:43 10° NW 08:17:54 19° N 08:21:06 10° NE night (unlit)
27 Feb - 09:57:30 10° NW 10:00:43 19° N 10:03:54 10° ENE night (unlit)
27 Feb - 11:38:44 10° NW 11:43:02 49° NNE 11:47:18 10° ESE visible
27 Feb - 13:20:37 10° WNW 13:24:24 28° SW 13:28:11 10° SSE visible
28 Feb - 05:06:01 10° SW 05:10:31 65° SE 05:14:58 10° ENE night (unlit)
28 Feb - 06:48:22 10° W 06:52:19 29° NNW 06:56:14 10° NE night (unlit)
28 Feb - 08:32:00 10° NW 08:34:56 17° N 08:37:53 10° NE night (unlit)
28 Feb - 10:13:59 10° NW 10:17:39 25° NNE 10:21:18 10° ENE night (unlit)
28 Feb - 11:55:12 10° NW 11:59:38 89° SW 12:04:03 10° SE visible
28 Feb - 13:38:31 10° W 13:40:38 13° SW 13:42:46 10° SSW visible
29 Feb - 03:42:24 10° S 03:45:49 21° SE 03:49:12 10° E visible
29 Feb - 05:22:32 10° WSW 05:27:02 65° NNW 05:31:30 10° NE night (unlit)
29 Feb - 07:05:44 10° WNW 07:09:13 21° NNW 07:12:40 10° NE night (unlit)
29 Feb - 08:48:58 10° NW 08:51:59 18° N 08:55:00 10° NE night (unlit)
29 Feb - 10:30:23 10° NW 10:34:29 36° NNE 10:38:35 10° E visible
29 Feb - 12:11:54 10° WNW 12:16:05 43° SW 12:20:16 10° SSE visible
01 Mar - 03:57:49 10° SSW 04:02:08 43° SE 04:06:24 10° ENE visible
01 Mar - 05:39:29 10° W 05:43:43 38° NNW 05:47:55 10° NE night (unlit)
01 Mar - 07:23:07 10° NW 07:26:12 18° N 07:29:16 10° NE night (unlit)
01 Mar - 09:05:35 10° NW 09:09:00 21° NNE 09:12:23 10° ENE night (unlit)
01 Mar - 10:46:47 10° NW 10:51:11 63° NNE 10:55:33 10° ESE visible
01 Mar - 12:29:05 10° W 12:32:23 21° SW 12:35:41 10° S visible
